Powrót do katalogu

BIRKELAND

AktywnyNaukaSSO
NORAD 55015·PAYLOAD·🇳🇴 Norway

Wystrzelony Jan 3, 2023 z Cape Canaveral Space Force Station

Loading…

Następne Przeloty (najbliższe 24 godziny)

TLE

ŚwieżeSource: Space-Track

Epoka: Sep 14, 2026, 15:22 UTC

1 55015U 23001G   26257.64039793  .00007504  00000-0  18120-3 0  9996
2 55015  97.3262 325.8856 0007627 133.6838 226.5042 15.41446704206126

Śledź BIRKELAND w czasie rzeczywistym z AllMySat

Download on the App Store